Location: Center Berlin
(42.6609°N, 73.3687°W)
Time: 13:55:50
(UTC+00:00)

Daily predictions for brighter satellites

Satellite Brightness Start Highest point End
(mag) Time Altitude Azimuth Time Altitude Azimuth Time Altitude Azimuth
Cosmos 1340 2.5 23:35:13 10° S 23:38:20 45° E 23:41:29 10° NNE
Cosmos 1937 Rocket 3.5 23:34:21 10° NNW 23:39:37 68° ENE 23:44:53 10° SSE
Cosmos 2322 Rocket 3.5 23:34:24 10° SW 23:39:50 45° WNW 23:45:20 10° NNE
Cosmos 372 Rocket 4.0 23:34:58 10° NNW 23:40:11 84° ENE 23:45:23 10° SSE
Cosmos 2237 Rocket 3.8 23:38:01 10° ESE 23:40:25 13° E 23:42:50 10° ENE
SJ-6B 3.2 23:38:51 10° SE 23:42:13 37° ENE 23:45:35 10° N
Cosmos 841 Rocket 3.6 23:38:15 10° SSW 23:43:27 88° WNW 23:48:39 10° NNE
ATLAS CENTAUR R/B 3.2 23:39:43 10° NW 23:44:39 69° SW 23:52:23 10° SE
CBERS 1 LM4 rocket 4.5 23:41:16 10° SSE 23:46:10 82° ENE 23:51:18 10° NNW
SeaSat 1 4.4 23:43:27 10° N 23:47:48 32° NW 23:52:08 10° WSW
Cosmos 2219 Rocket 2.3 23:43:01 10° SSW 23:48:42 89° WNW 23:54:25 10° NNE
ACS3 Solar Sail 3.2 23:44:41 10° ESE 23:49:18 22° ENE 23:53:55 10° NNE
Cosmos 44 Rocket 3.5 23:45:19 10° NNW 23:49:57 51° NE 23:54:29 10° SE
Cosmos 1328 Rocket 4.4 23:46:34 10° NNE 23:50:18 28° ENE 23:54:00 10° SE
Iridium 4 Rocket 3.3 23:46:48 10° NNE 23:50:47 41° E 23:54:42 10° SSE
Cosmos 1725 Rocket 4.3 23:45:40 10° SSW 23:51:49 76° W 23:58:01 10° N
Cosmos 1743 2.5 23:49:10 10° S 23:52:40 59° E 23:56:11 10° NNE
Cosmos 1818 3.6 23:48:58 10° SSW 23:54:25 80° ESE 23:59:55 10° NE
Meteor PRIRODA 3.5 23:51:37 10° SSE 23:54:49 50° ENE 23:58:02 10° N
